| time (UTC) | temp F | wind direction | speed MPH | gust MPH | rain 1hr in | rain 24hr in | rain mn in | humidity % | barometer mb |
| 20260504194558 | 80 | 67 | 3.0 | 10.0 | 0.00 | 0.08 | 0.00 | 86 | 1011.6 |
| 20260504193056 | 80 | 76 | 4.0 | 14.0 | 0.00 | 0.08 | 0.00 | 85 | 1011.5 |
| 20260504191559 | 80 | 76 | 4.0 | 13.0 | 0.00 | 0.08 | 0.00 | 84 | 1011.3 |
| 20260504184605 | 80 | 65 | 3.0 | 10.0 | 0.00 | 0.08 | 0.00 | 85 | 1011.1 |
| 20260504183101 | 80 | 53 | 5.0 | 13.0 | 0.00 | 0.08 | 0.00 | 84 | 1011.1 |
| 20260504181556 | 80 | 72 | 3.0 | 11.0 | 0.00 | 0.08 | 0.00 | 86 | 1011.0 |
| 20260504180058 | 80 | 64 | 4.0 | 9.0 | 0.00 | 0.08 | 0.00 | 84 | 1011.0 |
| 20260504174559 | 80 | 76 | 4.0 | 9.0 | 0.00 | 0.08 | 0.00 | 84 | 1011.0 |
| 20260504173058 | 80 | 64 | 3.0 | 7.0 | 0.00 | 0.08 | 0.00 | 83 | 1011.1 |
| 20260504171558 | 80 | 88 | 6.0 | 14.0 | 0.00 | 0.08 | 0.00 | 82 | 1011.2 |
| 20260504081558 | 81 | 48 | 6.0 | 15.0 | 0.00 | 0.17 | 0.17 | 85 | 1011.3 |
| 20260504070107 | 82 | 84 | 7.0 | 14.0 | 0.00 | 0.17 | 0.17 | 82 | 1010.7 |
| 20260504060109 | 83 | 92 | 5.0 | 13.0 | 0.00 | 0.17 | 0.17 | 83 | 1010.7 |
| 20260504044603 | 81 | 108 | 8.0 | 13.0 | 0.00 | 0.17 | 0.17 | 84 | 1010.9 |
| 20260504043057 | 82 | 75 | 10.0 | 17.0 | 0.00 | 0.17 | 0.17 | 81 | 1011.1 |
| 20260504041556 | 85 | 69 | 6.0 | 11.0 | 0.00 | 0.17 | 0.17 | 80 | 1011.1 |
| 20260504040058 | 84 | 105 | 5.0 | 14.0 | 0.00 | 0.17 | 0.17 | 82 | 1011.2 |
| 20260504034614 | 84 | 63 | 7.0 | 13.0 | 0.00 | 0.17 | 0.17 | 82 | 1011.4 |
| 20260504033057 | 84 | 79 | 7.0 | 12.0 | 0.00 | 0.17 | 0.17 | 82 | 1011.5 |
| 20260504031556 | 83 | 100 | 7.0 | 14.0 | 0.00 | 0.17 | 0.17 | 82 | 1011.7 |
| 20260504030058 | 84 | 69 | 8.0 | 14.0 | 0.00 | 0.17 | 0.17 | 81 | 1011.7 |
| 20260504024558 | 84 | 97 | 7.0 | 14.0 | 0.00 | 0.17 | 0.17 | 80 | 1012.0 |
| 20260504023100 | 84 | 84 | 9.0 | 16.0 | 0.00 | 0.17 | 0.17 | 80 | 1012.1 |
| 20260504021557 | 84 | 78 | 9.0 | 20.0 | 0.00 | 0.17 | 0.17 | 82 | 1012.2 |
| 20260504020058 | 84 | 86 | 9.0 | 16.0 | 0.00 | 0.17 | 0.17 | 80 | 1012.3 |
| 20260504014616 | 84 | 72 | 5.0 | 15.0 | 0.00 | 0.17 | 0.17 | 82 | 1012.4 |
| 20260504013104 | 84 | 92 | 7.0 | 15.0 | 0.00 | 0.17 | 0.17 | 81 | 1012.7 |
| 20260504011603 | 84 | 61 | 7.0 | 13.0 | 0.00 | 0.17 | 0.17 | 81 | 1012.7 |
| 20260504010100 | 84 | 70 | 8.0 | 14.0 | 0.00 | 0.17 | 0.17 | 80 | 1012.8 |
| 20260504004558 | 84 | 77 | 6.0 | 12.0 | 0.00 | 0.17 | 0.17 | 82 | 1012.9 |
| 20260504003100 | 84 | 84 | 7.0 | 14.0 | 0.00 | 0.17 | 0.17 | 81 | 1013.0 |
| 20260504001613 | 83 | 73 | 6.0 | 15.0 | 0.00 | 0.17 | 0.17 | 82 | 1012.9 |
| 20260504000058 | 83 | 70 | 7.0 | 11.0 | 0.00 | 0.17 | 0.17 | 84 | 1013.0 |
| 20260503234559 | 83 | 62 | 5.0 | 13.0 | 0.00 | 0.17 | 0.17 | 84 | 1012.9 |
| 20260503233057 | 82 | 74 | 6.0 | 14.0 | 0.00 | 0.17 | 0.17 | 82 | 1013.0 |
| 20260503231559 | 82 | 96 | 6.0 | 12.0 | 0.00 | 0.17 | 0.17 | 84 | 1013.0 |
| 20260503230100 | 82 | 71 | 6.0 | 13.0 | 0.00 | 0.17 | 0.17 | 86 | 1013.0 |
| 20260503224558 | 82 | 65 | 6.0 | 13.0 | 0.00 | 0.17 | 0.17 | 85 | 1012.9 |
| 20260503223057 | 82 | 73 | 7.0 | 15.0 | 0.00 | 0.17 | 0.17 | 84 | 1012.7 |
| 20260503221558 | 82 | 74 | 7.0 | 12.0 | 0.00 | 0.17 | 0.17 | 85 | 1012.6 |
| 20260503220105 | 82 | 72 | 5.0 | 14.0 | 0.00 | 0.17 | 0.17 | 84 | 1012.5 |
| 20260503214558 | 82 | 74 | 4.0 | 12.0 | 0.01 | 0.17 | 0.17 | 85 | 1012.2 |
| 20260503213110 | 80 | 86 | 5.0 | 11.0 | 0.06 | 0.17 | 0.17 | 88 | 1012.1 |
| 20260503211557 | 79 | 78 | 3.0 | 8.0 | 0.07 | 0.17 | 0.17 | 91 | 1012.0 |
| 20260503210104 | 77 | 71 | 2.0 | 10.0 | 0.07 | 0.17 | 0.17 | 89 | 1011.7 |
| 20260503204558 | 76 | 75 | 7.0 | 14.0 | 0.06 | 0.16 | 0.16 | 87 | 1011.7 |
| 20260503203103 | 80 | 71 | 7.0 | 12.0 | 0.01 | 0.11 | 0.11 | 86 | 1011.5 |
| 20260503201557 | 80 | 75 | 5.0 | 13.0 | 0.00 | 0.10 | 0.10 | 85 | 1011.3 |
| 20260503200058 | 80 | 74 | 5.0 | 15.0 | 0.00 | 0.10 | 0.10 | 84 | 1011.1 |